OpenBCM V2.0.3 (Linux)

Packet Radio Mailbox

IZ3LSV

[San Dona' di P. JN]

 Login: GUEST





  
LU9DCE > KEPS     16.02.18 18:13l 263 Lines 13009 Bytes #999 (0) @ WW
BID : 31988_LU9DCE
Read: GUEST
Subj: SAT TLE OF 16
Path: IZ3LSV<IR2UBX<EA2RCF<LU9DCE
Sent: 180216/1601Z @:LU9DCE.TOR.BA.ARG.SOAM #:31988 [TORTUGUITAS] FBB7.07
From: LU9DCE@LU9DCE.TOR.BA.ARG.SOAM
To  : KEPS@WW


            __    _  _  ___  ____   ___  ____    ____  ____  ____
           (  )  / )( \/ _ \(    \ / __)(  __)  (  _ \(  _ \/ ___)
           / (_/\) \/ (\__  )) D (( (__  ) _)    ) _ ( ) _ (\___ \
           \____/\____/(___/(____/ \___)(____)  (____/(____/(____/
               ESTACION DE PACKET RADIO - BUENOS AIRES (GF05OM)
                   BOLETINES INFORMATIVOS PROGRAMADOS (BIP)
                    LU9DCE@GMX.COM - RF 147070 @ 1200 BAUD
                           telnet lu9dce.dynu.com
             BBS port 6300 / NODE port 3694 / DXCLUSTER port 9000

+------------------------------------------------------------------------------+
OSCAR 7
1 07530U 74089B   18047.52450285 -.00000044  00000-0  42391-5 0  9997
2 07530 101.6711  16.7346 0011880 207.8227 265.4539 12.53631096979473
OSCAR 11 (UoSAT 2)
1 14781U 84021B   18046.88716703 +.00000106 +00000-0 +19204-4 0  9992
2 14781 097.6658 088.1703 0009849 117.0704 243.1516 14.82980504805467
OSCAR 19 (LUSAT)
1 20442U 90005G   18046.78017826 -.00000005 +00000-0 +14315-4 0  9998
2 20442 098.6001 346.0909 0012349 144.1354 216.0662 14.32886707466443
KITSAT B
1 22825U 93061C   18047.17540666 -.00000004  00000-0  16420-4 0  9995
2 22825  98.8481  21.1936 0008153 347.1041  12.9931 14.30021858272275
POSAT 1
1 22826U 93061D   18047.15026198 -.00000001  00000-0  17497-4 0  9995
2 22826  98.8422  21.2208 0008495 336.2162  23.8626 14.30352745272450
RADIO ROSTO
1 23439U 94085A   18046.74354329 -.00000061 +00000-0 -53402-3 0  9999
2 23439 064.8154 185.2429 0161284 203.6605 258.9881 11.27566600952872
JAS 2
1 24278U 96046B   18046.59134169 -.00000004 +00000-0 +29751-4 0  9998
2 24278 098.5287 262.0200 0351281 066.4639 297.2993 13.53081311061543
TECHSAT 1B
1 25397U 98043D   18047.07601186 -.00000021  00000-0  97842-5 0  9998
2 25397  98.6385 349.5966 0001916  46.7267 313.4072 14.23639685 18497
ISS (ZARYA)
1 25544U 98067A   18046.94522652 +.00001155 +00000-0 +24726-4 0  9991
2 25544 051.6415 263.1312 0003551 104.2441 350.0605 15.54096257099665
PCSAT
1 26931U 01043C   18047.11982517 -.00000052  00000-0  12006-4 0  9994
2 26931  67.0510 181.7988 0005776 281.6496  78.3957 14.30494016855239
SAUDISAT 1C
1 27607U 02058C   18046.75040242  .00000023  00000-0  24005-4 0  9990
2 27607  64.5550 101.2139 0050698 357.6037   2.4815 14.75419743815048
CUTE-1
1 27844U 03031E   18046.94257487 +.00000057 +00000-0 +45462-4 0  9994
2 27844 098.6889 057.3751 0009853 008.9756 351.1596 14.22094566758923
CUBESAT XI 4
1 27848U 03031J   18046.93863750 +.00000042 +00000-0 +38898-4 0  9992
2 27848 098.6978 057.7271 0009949 018.9071 341.2474 14.21701163758803
MOZHAYETS 4
1 27939U 03042A   18047.57357715  .00000129  00000-0  31572-4 0  9993
2 27939  97.9698 189.9647 0013372 165.6237 333.8877 14.66657595769139
CUBESAT XI 5
1 28895U 05043F   18046.92155016 +.00000146 +00000-0 +36734-4 0  9990
2 28895 097.8900 203.4149 0018186 093.1626 267.1658 14.63508870655903
CUTE-1.7+APD II
1 32785U 08021C   18046.81123461 +.00000233 +00000-0 +30931-4 0  9999
2 32785 097.5528 064.7517 0014632 082.2420 278.0458 14.88061330531059
DELFI C3
1 32789U 08021G   18046.71412378 +.00001516 +00000-0 +10883-3 0  9998
2 32789 097.5283 104.5245 0012206 359.0032 001.1169 15.05745034533507
SEEDS
1 32791U 08021J   18046.62686356  .00000329  00000-0  39100-4 0  9995
2 32791  97.5448  69.6440 0014795  66.4853 293.7919 14.90467139531405
YUBELEINY
1 32953U 08025A   18047.55418156  .00000039  00000-0  20875-3 0  9999
2 32953  82.4999  87.7077 0020358 112.4205 247.9034 12.43081679441788
PRISM (HITOMI)
1 33493U 09002B   18047.51826577  .00000466  00000-0  47045-4 0  9994
2 33493  98.1433 304.9054 0015598   1.1341 358.9914 14.96071013492304
KKS-1 (KISEKI)
1 33499U 09002H   18046.91182965 +.00000114 +00000-0 +24992-4 0  9995
2 33499 098.3486 224.7717 0008419 325.0398 035.0256 14.75294311486871
SWISSCUBE
1 35932U 09051B   18047.36105713  .00000131  00000-0  40584-4 0  9993
2 35932  98.5256 195.7459 0007123 213.5153 146.5594 14.56120875445851
BEESAT
1 35933U 09051C   18047.12221843  .00000126  00000-0  39407-4 0  9997
2 35933  98.5296 196.9710 0005080 226.6996 133.3778 14.56229089445922
ITUPSAT 1
1 35935U 09051E   18046.97126411  .00000075  00000-0  28242-4 0  9994
2 35935  98.5407 197.0708 0007435 223.9692 136.0914 14.55410527445690
XIWANG-1 (HOPE-1)
1 36122U 09072B   18046.63251793 -.00000023 +00000-0 +49166-4 0  9993
2 36122 100.0836 066.9169 0007866 037.6603 322.5060 13.16343355392559
TISAT 1
1 36799U 10035E   18046.89518916 +.00000495 +00000-0 +56470-4 0  9993
2 36799 098.0873 180.0474 0011234 243.4918 116.5148 14.90693918411885
JUGNU
1 37839U 11058B   18047.20442274  .00000328  00000-0  33094-4 0  9996
2 37839  19.9623  50.8607 0018921 354.0735  90.7247 14.12609442328247
SRMSAT
1 37841U 11058D   18047.48301596  .00000298  00000-0  18563-4 0  9990
2 37841  19.9724  95.8831 0011652 244.5120 243.4776 14.10598244327816
M-CUBED/EXP-1 PRIME
1 37855U 11061F   18047.21845388  .00001870  00000-0  10336-3 0  9998
2 37855 101.7249  47.8437 0177691  80.1388 281.9832 15.04052159343461
HORYU 2
1 38340U 12025D   18047.02835975  .00000219  00000-0  40277-4 0  9993
2 38340  98.3740  64.5411 0010601 232.7615 127.2627 14.75499039309242
STRAND 1
1 39090U 13009E   18047.20585478  .00000037  00000-0  28555-4 0  9992
2 39090  98.5324 255.0774 0008249 300.4466  59.5904 14.35011129260478
SOMP
1 39134U 13015E   18046.66424101  .00001604  00000-0  85826-4 0  9997
2 39134  64.8639 159.9100 0024934 227.1045 132.7989 15.18807615266449
BEESAT 3
1 39135U 13015F   18046.95108850 +.00001580 +00000-0 +90270-4 0  9992
2 39135 064.8697 170.7875 0030170 248.3604 111.4308 15.16392123265875
BEESAT 2
1 39136U 13015G   18046.74675424  .00001497  00000-0  87322-4 0  9997
2 39136  64.8694 173.9068 0030116 249.3365 110.4530 15.15868260266187
CUBEBUG 1
1 39153U 13018D   18047.18437009  .00000232  00000-0  37372-4 0  9999
2 39153  97.9790 143.1591 0016435 342.7402  17.3249 14.80339752259687
ZACUBE
1 39417U 13066B   18047.09835790  .00000243  00000-0  37113-4 0  9999
2 39417  97.6014  82.1169 0058993 190.3678 169.6323 14.80875303228874
TRITON 1
1 39427U 13066M   18046.94354503 +.00000169 +00000-0 +35327-4 0  9993
2 39427 097.6377 050.9371 0112764 288.0803 070.8145 14.67610974226607
GOMX 1
1 39430U 13066Q   18047.53647570  .00000287  00000-0  61168-4 0  9995
2 39430  97.6854  33.1887 0151536 351.9861   7.8921 14.59023789225569
HUMSAT D
1 39433U 13066T   18046.83674362 +.00000625 +00000-0 +66886-4 0  9997
2 39433 097.6210 107.3661 0032353 125.3699 235.0551 14.91747166229150
50 SAT
1 39436U 13066W   18047.56564349  .00091492  00000-0  11580-2 0  9995
2 39436  97.7121 174.0374 0006311 271.6094  88.4438 15.59173137234411
CUBEBUG 2
1 39440U 13066AA  18046.62779341  .00000185  00000-0  33076-4 0  9991
2 39440  97.6093  69.0398 0079510 229.5852 129.8403 14.75611855227995
FUNCUBE 1
1 39444U 13066AE  18046.88717284 +.00000287 +00000-0 +41977-4 0  9993
2 39444 097.6027 083.2873 0058264 186.8867 173.1553 14.81639914227100
UWE-3
1 39446U 13066AG  18046.85875973 +.00000198 +00000-0 +33132-4 0  9997
2 39446 097.6040 075.2148 0069615 210.3673 149.3498 14.78144767226603
SPROUT
1 39770U 14029E   18047.51867778  .00000480  00000-0  60173-4 0  9994
2 39770  97.8731 149.6291 0007634 240.2829 119.7662 14.86665880202437
UNISAT 6
1 40012U 14033C   18046.88885200 +.00000177 +00000-0 +34161-4 0  9990
2 40012 097.8264 287.5259 0057381 229.1836 130.4389 14.73763896196837
DUCHIFAT 1
1 40021U 14033M   18046.72972536  .00000471  00000-0  54467-4 0  9990
2 40021  97.9179 325.2310 0012045 214.3227 145.7214 14.90196990198864
QB50P1
1 40025U 14033R   18046.75730197  .00000310  00000-0  39276-4 0  9995
2 40025  97.9091 322.3883 0011477 219.9787 140.0585 14.88635797198728
CHUBUSAT 1
1 40300U 14070C   18047.20305249  .00000601  00000-0  29769-4 0  9998
2 40300  97.3751 127.4436 0019378 332.0037  80.3125 15.21383262181882
NUDT-PHONESAT
1 40900U 15049B   18046.93080410 +.00002408 +00000-0 +11215-3 0  9993
2 40900 097.4429 056.6171 0015348 093.4818 266.8173 15.20783021133481
ZDPS 2A
1 40901U 15049C   18047.49819530  .00000936  00000-0  50841-4 0  9992
2 40901  97.4595  55.7452 0015476  96.6039 263.6956 15.16853709133367
ZDPS 2B
1 40902U 15049D   18047.19199534  .00000988  00000-0  53775-4 0  9991
2 40902  97.4484  53.6697 0015550  95.0435 265.2574 15.16660740133308
XW-2A
1 40903U 15049E   18047.53410016  .00001943  00000-0  50652-4 0  9994
2 40903  97.3988  81.1271 0016104 104.1551 256.1486 15.40003179135237
KAITUO 1A
1 40904U 15049F   18047.54069204  .00000722  00000-0  42190-4 0  9997
2 40904  97.4578  53.3956 0016618  94.2902  22.2055 15.14883889133231
OBJECT G
1 40905U 15049G   18047.52487346  .00000437  00000-0  27683-4 0  9990
2 40905  97.4569  51.6589 0017523  88.6021 271.7217 15.13857111133161
XW-2C
1 40906U 15049H   18047.52422241  .00000722  00000-0  42068-4 0  9995
2 40906  97.4591  53.2483 0016786  88.4803 271.8352 15.15015218133228
XW-2D
1 40907U 15049J   18047.55423256  .00000778  00000-0  44863-4 0  9992
2 40907  97.4563  52.9907 0016151  86.5188 273.7891 15.15153391133231
LILACSAT 2
1 40908U 15049K   18046.95536916 +.00000493 +00000-0 +31151-4 0  9994
2 40908 097.4670 051.9145 0017766 088.9111 271.4155 15.13406487133030
XW-2F
1 40910U 15049M   18047.06642321  .00001302  00000-0  70524-4 0  9995
2 40910  97.4571  53.6096 0016896  84.7686 275.5474 15.16259434133109
XW-2B
1 40911U 15049N   18046.97306432  .00000841  00000-0  48331-4 0  9993
2 40911  97.4600  52.9106 0016057  88.8260 271.4812 15.15102113133043
